Location: LDNL
(36.4545°S, 141.6685°E)
Time: 22:24:45
(UTC+11:00)

deb Explorer IX - All Passes

Search period start: 30 January 2023 00:00
Search period end: 09 February 2023 00:00
Orbit: 534 x 1049 km, 38.8° (Epoch: 29 January)

Date Brightness Start Highest point End Pass type
(mag) Time Alt. Az. Time Alt. Az. Time Alt. Az.
30 Jan - 00:54:53 10° W 01:00:48 37° NW 01:06:02 10° NNE visible
30 Jan - 17:15:52 10° NNW 17:21:37 31° NE 17:27:39 10° E daylight
30 Jan - 19:00:54 10° WNW 19:07:51 77° NNE 19:14:55 10° ESE daylight
30 Jan - 20:47:43 10° W 20:54:49 74° S 21:01:38 10° E daylight
30 Jan - 22:34:48 10° WSW 22:41:51 88° S 22:48:16 10° ENE visible
31 Jan - 00:21:59 10° W 00:28:13 41° NNW 00:33:44 10° NE visible
31 Jan - 16:43:31 10° NNW 16:48:57 28° NE 16:54:42 10° E daylight
31 Jan - 18:28:15 10° WNW 18:35:05 73° NNE 18:42:10 10° ESE daylight
31 Jan - 20:14:56 10° W 20:22:01 75° S 20:28:57 10° E daylight
31 Jan - 22:01:58 10° WSW 22:09:06 85° SSE 22:15:40 10° ENE visible
31 Jan - 23:49:05 10° W 23:55:34 45° NNW 00:01:21 10° NE visible
01 Feb - 01:38:52 10° WNW 01:40:58 12° NW 01:42:58 10° NNW visible
01 Feb - 16:11:13 10° NNW 16:16:18 25° NE 16:21:43 10° E daylight
01 Feb - 17:55:38 10° WNW 18:02:18 69° NNE 18:09:22 10° ESE daylight
01 Feb - 19:42:10 10° W 19:49:11 76° S 19:56:13 10° E daylight
01 Feb - 21:29:09 10° WSW 21:36:17 83° S 21:43:01 10° E visible
01 Feb - 23:16:11 10° WSW 23:22:52 50° NNW 23:28:55 10° NE visible
02 Feb - 01:05:12 10° WNW 01:08:24 14° NW 01:11:26 10° NNW visible
02 Feb - 15:39:00 10° N 15:43:38 22° NE 15:48:38 10° E daylight
02 Feb - 17:23:02 10° NW 17:29:32 64° NNE 17:36:31 10° ESE daylight
02 Feb - 19:09:23 10° W 19:16:20 77° S 19:23:26 10° E daylight
02 Feb - 20:56:20 10° WSW 21:03:28 81° SSE 21:10:20 10° E visible
02 Feb - 22:43:18 10° WSW 22:50:08 55° NNW 22:56:25 10° NE visible
03 Feb - 00:31:48 10° W 00:35:48 17° NW 00:39:33 10° N visible
03 Feb - 15:06:51 10° N 15:11:00 19° NE 15:15:27 10° E daylight
03 Feb - 16:50:27 10° NW 16:56:45 60° NNE 17:03:39 10° ESE daylight
03 Feb - 18:36:39 10° W 18:43:29 78° S 18:50:36 10° ESE daylight
03 Feb - 20:23:31 10° WSW 20:30:35 79° S 20:37:34 10° E daylight
03 Feb - 22:10:24 10° WSW 22:17:21 59° NNW 22:23:50 10° NE visible
03 Feb - 23:58:33 10° W 00:03:09 19° NW 00:07:29 10° N visible
04 Feb - 14:34:48 10° N 14:38:22 16° NE 14:42:10 10° E daylight
04 Feb - 16:17:54 10° NW 16:23:58 55° NNE 16:30:43 10° ESE daylight
04 Feb - 18:03:55 10° W 18:10:36 80° S 18:17:44 10° ESE daylight
04 Feb - 19:50:42 10° W 19:57:43 77° S 20:04:46 10° E daylight
04 Feb - 21:37:31 10° WSW 21:44:31 63° NNW 21:51:12 10° NE visible
04 Feb - 23:25:22 10° W 23:30:27 22° NW 23:35:16 10° N visible
05 Feb - 14:02:56 10° NNE 14:05:44 14° NE 14:08:41 10° ENE daylight
05 Feb - 15:45:23 10° NW 15:51:12 50° NNE 15:57:45 10° ESE daylight
05 Feb - 17:31:12 10° W 17:37:44 82° S 17:44:50 10° ESE daylight
05 Feb - 19:17:54 10° W 19:24:48 76° S 19:31:54 10° E daylight
05 Feb - 21:04:39 10° WSW 21:11:40 68° NNW 21:18:30 10° ENE visible
05 Feb - 22:52:15 10° W 22:57:43 25° NW 23:02:56 10° NNE visible
06 Feb - 13:31:28 10° NNE 13:33:07 11° NE 13:34:49 10° ENE daylight
06 Feb - 15:12:53 10° NW 15:18:26 45° NNE 15:24:45 10° E daylight
06 Feb - 16:58:30 10° WNW 17:04:51 85° SSW 17:11:53 10° ESE daylight
06 Feb - 18:45:07 10° W 18:51:53 75° S 18:59:00 10° E daylight
06 Feb - 20:31:48 10° WSW 20:38:47 72° NNW 20:45:44 10° ENE daylight
06 Feb - 22:19:10 10° W 22:24:57 28° NW 22:30:30 10° NNE visible
07 Feb - 14:40:25 10° NW 14:45:41 41° NNE 14:51:43 10° E daylight
07 Feb - 16:25:49 10° WNW 16:31:59 88° SSW 16:38:54 10° ESE daylight
07 Feb - 18:12:20 10° W 18:18:57 74° S 18:26:03 10° E daylight
07 Feb - 19:58:57 10° WSW 20:05:53 76° NNW 20:12:54 10° ENE daylight
07 Feb - 21:46:08 10° W 21:52:09 30° NW 21:57:59 10° NNE visible
08 Feb - 14:07:59 10° NNW 14:12:57 36° NNE 14:18:38 10° E daylight
08 Feb - 15:53:10 10° WNW 15:59:06 89° NNE 16:05:54 10° ESE daylight
08 Feb - 17:39:35 10° W 17:46:01 73° S 17:53:03 10° E daylight
08 Feb - 19:26:07 10° WSW 19:32:57 80° NNW 19:40:02 10° ENE daylight
08 Feb - 21:13:08 10° W 21:19:18 33° NW 21:25:23 10° NNE visible
